DW9686 Weather Reports


time (UTC)temp
F
wind
direction
speed
knots
gust
knots
rain 1hr
in
rain 24hr
in
rain mn
in
humidity
%
barometer
mb
20260905200037 68 360 0.9 6.1 0.00 0.00 0.00 58 1016.7
20260905194535 68 293 2.6 6.1 0.00 0.00 0.00 60 1016.8
20260905193036 67 330 3.5 7.8 0.00 0.00 0.00 61 1016.8
20260905191542 66 5 2.6 7.8 0.00 0.00 0.00 64 1016.8
20260905190038 65 306 2.6 7.0 0.00 0.00 0.00 64 1017.0
20260905184545 64 348 1.7 7.0 0.00 0.00 0.00 65 1017.2
20260905183033 64 305 2.6 7.0 0.00 0.00 0.00 66 1017.5
20260905181544 64 342 1.7 7.8 0.00 0.00 0.00 67 1017.7
20260905180041 63 333 2.6 9.6 0.00 0.00 0.00 68 1017.8
20260905174537 62 338 3.5 8.7 0.00 0.00 0.00 68 1017.7
20260905173040 61 360 2.6 7.8 0.00 0.00 0.00 70 1017.8
20260905171550 60 352 2.6 5.2 0.00 0.00 0.00 70 1017.9
20260905170043 60 352 1.7 7.8 0.00 0.00 0.00 72 1017.8
20260905164544 59 340 3.5 8.7 0.00 0.00 0.00 72 1017.8
20260905163052 58 352 5.2 9.6 0.00 0.00 0.00 74 1017.5
20260905161542 57 340 3.5 9.6 0.00 0.00 0.00 76 1017.3
20260905160038 57 18 5.2 8.7 0.00 0.00 0.00 77 1017.3
20260905154549 56 352 4.3 9.6 0.00 0.00 0.00 80 1017.4
20260905153038 55 318 1.7 7.0 0.00 0.00 0.00 80 1017.6
20260905151540 54 323 1.7 8.7 0.00 0.00 0.00 81 1017.5
20260905150045 54 348 3.5 9.6 0.00 0.00 0.00 82 1017.2
20260905144540 53 338 3.5 7.0 0.00 0.00 0.00 84 1017.4
20260905143042 53 0 0.0 1.7 0.00 0.00 0.00 84 1017.8
20260905141541 53 0 0.9 2.6 0.00 0.00 0.00 84 1017.6
20260905140038 53 0 0.9 3.5 0.00 0.00 0.00 82 1017.5
20260905134543 53 337 2.6 7.0 0.00 0.00 0.00 81 1017.1
20260905133038 53 333 3.5 7.0 0.00 0.00 0.00 83 1016.6
20260905131540 52 331 2.6 4.3 0.00 0.00 0.00 84 1016.6
20260905130040 52 331 1.7 3.5 0.00 0.00 0.00 83 1016.5
20260905124537 52 331 2.6 5.2 0.00 0.00 0.00 84 1016.4
20260905123043 52 331 0.9 3.5 0.00 0.00 0.00 83 1016.5
20260905121539 53 331 2.6 4.3 0.00 0.00 0.00 82 1016.3
20260905120050 53 331 2.6 4.3 0.00 0.00 0.00 82 1016.2
20260905114538 54 331 2.6 4.3 0.00 0.00 0.00 81 1016.2
20260905113037 54 331 2.6 5.2 0.00 0.00 0.00 80 1016.2
20260905111545 54 331 2.6 4.3 0.00 0.00 0.00 80 1016.0
20260905110108 54 331 1.7 4.3 0.00 0.00 0.00 79 1016.0
20260905104551 55 331 0.9 4.3 0.00 0.00 0.00 77 1016.0
20260905103039 55 328 3.5 7.8 0.00 0.00 0.00 78 1015.8
20260905101538 55 327 1.7 3.5 0.00 0.00 0.00 79 1015.7
20260905100043 55 327 2.6 7.0 0.00 0.00 0.00 79 1015.7
20260905094640 54 322 3.5 7.8 0.00 0.00 0.00 80 1015.7
20260905093037 54 313 1.7 4.3 0.00 0.00 0.00 80 1015.8
20260905091539 54 313 1.7 4.3 0.00 0.00 0.00 79 1015.7
20260905090041 55 313 0.9 3.5 0.00 0.00 0.00 76 1015.7
20260905084553 56 313 2.6 7.0 0.00 0.00 0.00 75 1015.5
20260905083035 55 311 2.6 7.0 0.00 0.00 0.00 76 1015.3
20260905081542 56 311 4.3 8.7 0.00 0.00 0.00 75 1015.1
20260905080035 56 316 5.2 7.8 0.00 0.00 0.00 74 1015.0
20260905074539 57 314 2.6 7.0 0.00 0.00 0.00 72 1015.1
20260905073041 57 312 3.5 7.0 0.00 0.00 0.00 72 1015.0
20260905071547 57 310 4.3 8.7 0.00 0.00 0.00 72 1014.9
20260905070037 56 313 4.3 7.8 0.00 0.00 0.00 72 1014.8
20260905064539 56 320 4.3 8.7 0.00 0.00 0.00 70 1014.6
20260905063041 56 317 6.1 9.6 0.00 0.00 0.00 69 1014.6
20260905061554 56 315 5.2 9.6 0.00 0.00 0.00 70 1014.5
20260905060058 56 319 6.1 9.6 0.00 0.00 0.00 70 1014.5
20260905054552 56 124 3.5 7.0 0.00 0.00 0.00 67 1014.2
20260905053037 57 135 1.7 4.3 0.00 0.00 0.00 67 1014.3
20260905051539 57 135 2.6 6.1 0.00 0.00 0.00 68 1014.2
20260905050035 57 135 1.7 3.5 0.00 0.00 0.00 67 1014.2
20260905044543 58 135 1.7 4.3 0.00 0.00 0.00 66 1014.3
20260905043041 59 135 1.7 3.5 0.00 0.00 0.00 66 1014.2
20260905041539 60 135 1.7 3.5 0.00 0.00 0.00 66 1014.3
20260905040046 60 135 1.7 3.5 0.00 0.00 0.00 66 1014.2
20260905034538 61 135 0.9 3.5 0.00 0.00 0.00 65 1014.0
20260905033051 62 135 0.9 2.6 0.00 0.00 0.00 64 1014.1
20260905031545 62 135 0.9 2.6 0.00 0.00 0.00 65 1013.8
20260905030040 63 135 0.9 2.6 0.00 0.00 0.00 64 1013.7
20260905024557 65 0 0.0 2.6 0.00 0.00 0.00 62 1013.6
20260905023042 67 0 0.9 2.6 0.00 0.00 0.00 58 1013.6
20260905021539 70 0 0.0 0.0 0.00 0.00 0.00 50 1013.6
20260905020040 70 0 0.0 0.0 0.00 0.00 0.00 48 1013.7
20260905014542 71 0 0.0 0.0 0.00 0.00 0.00 50 1013.5
20260905013102 72 0 0.0 0.0 0.00 0.00 0.00 45 1013.4
20260905011539 73 0 0.0 0.0 0.00 0.00 0.00 39 1013.3
20260905010038 73 0 0.0 0.0 0.00 0.00 0.00 37 1013.2
20260905004540 72 0 0.0 2.6 0.00 0.00 0.00 39 1013.1
20260905003042 71 0 0.0 3.5 0.00 0.00 0.00 45 1013.2
20260905001555 71 135 1.7 7.8 0.00 0.00 0.00 45 1013.2
20260905000037 72 135 5.2 7.8 0.00 0.00 0.00 42 1013.2
20260904234542 73 144 1.7 6.1 0.00 0.00 0.00 40 1013.1
20260904233038 73 144 2.6 7.8 0.00 0.00 0.00 40 1013.2
20260904231538 73 146 3.5 7.8 0.00 0.00 0.00 41 1013.2
20260904230056 73 155 1.7 5.2 0.00 0.00 0.00 44 1013.2
20260904224545 72 155 1.7 5.2 0.00 0.00 0.00 45 1013.3
20260904223102 71 155 2.6 7.0 0.00 0.00 0.00 45 1013.4
20260904221538 71 156 2.6 7.8 0.00 0.00 0.00 45 1013.5
20260904220044 70 166 3.5 6.1 0.00 0.00 0.00 46 1013.6
20260904214545 70 166 3.5 6.1 0.00 0.00 0.00 45 1013.8
20260904213044 70 166 1.7 6.1 0.00 0.00 0.00 48 1013.6
20260904211539 70 166 3.5 6.1 0.00 0.00 0.00 47 1013.8
20260904210043 69 166 2.6 7.8 0.00 0.00 0.00 49 1013.7
20260904204538 69 169 3.5 7.0 0.00 0.00 0.00 51 1013.7
20260904203037 68 175 3.5 6.1 0.00 0.00 0.00 52 1013.6
20260904201542 68 0 0.0 7.0 0.00 0.00 0.00 55 1013.8